Simultaneous Nadir Overpasses (SNOs) Predictions

Prediction of SNOs between NOAA-21 and FY3D Satellite Orbit:

Table of predicted SNOs for the next 14.0 days since TLE Epoch: 6/24/2023
Index Date (NOAA-21) Time (NOAA-21) Lat,Lon (NOAA-21) SZA (NOAA-21 ) Date (FY3D) Time (FY3D) Lat,Lon (FY3D) SZA (FY3D ) Distance(km) Time Diff (sec)
1 06/27/2023 09:52:27 -81.18, 153.30 117.61 06/27/2023 09:51:11 -81.18, 153.39 117.58 1.63 76
2 06/27/2023 10:43:12 81.19, -39.46 62.41 06/27/2023 10:41:57 81.18, -39.47 62.45 0.38 75
3 06/27/2023 11:33:57 -81.19, 127.87 117.59 06/27/2023 11:32:43 -81.18, 127.81 117.55 1.05 74
4 06/27/2023 12:24:41 81.18, -64.50 62.36 06/27/2023 12:23:28 81.18, -64.66 62.43 2.84 73
5 06/27/2023 13:15:27 -81.19, 102.45 117.58 06/27/2023 13:14:14 -81.18, 102.62 117.57 2.96 73
6 06/27/2023 14:06:12 81.19, -90.31 62.43 06/27/2023 14:05:00 81.18, -90.24 62.46 1.31 72
7 06/27/2023 14:56:57 -81.19, 77.02 117.57 06/27/2023 14:55:46 -81.18, 77.04 117.54 0.66 71
8 06/27/2023 15:47:41 81.18,-115.35 62.39 06/27/2023 15:46:31 81.18,-115.43 62.44 1.46 70
9 06/27/2023 16:38:26 -81.18, 51.98 117.62 06/27/2023 16:37:17 -81.18, 51.84 117.56 2.29 69
10 06/27/2023 17:29:11 81.18,-140.78 62.40 06/27/2023 17:28:02 81.18,-140.63 62.42 2.60 69
11 06/27/2023 18:19:56 -81.18, 26.55 117.61 06/27/2023 18:18:48 -81.18, 26.65 117.58 1.73 68
12 06/27/2023 19:10:41 81.18,-166.20 62.41 06/27/2023 19:09:34 81.18,-166.21 62.45 0.11 67
13 06/27/2023 20:01:26 -81.18, 1.13 117.60 06/27/2023 20:00:20 -81.18, 1.07 117.55 0.95 66
14 06/27/2023 20:52:11 81.18, 168.37 62.42 06/27/2023 20:51:06 81.18, 168.21 62.48 2.69 65
15 06/27/2023 21:42:56 -81.18, -24.30 117.59 06/27/2023 21:41:51 -81.18, -24.12 117.57 3.00 65
16 06/27/2023 22:33:41 81.19, 142.94 62.43 06/27/2023 22:32:37 81.18, 143.02 62.46 1.31 64
17 06/27/2023 23:24:26 -81.19, -49.72 117.57 06/27/2023 23:23:23 -81.18, -49.70 117.54 0.40 63
18 06/28/2023 00:15:11 81.19, 117.52 62.44 06/28/2023 00:14:09 81.18, 117.44 62.49 1.42 62
19 06/28/2023 01:05:56 -81.19, -75.15 117.56 06/28/2023 01:04:55 -81.18, -75.28 117.51 2.31 61
20 06/28/2023 01:56:41 81.19, 92.09 62.45 06/28/2023 01:55:40 81.18, 92.25 62.47 2.69 61
21 06/28/2023 02:47:26 -81.19,-100.58 117.55 06/28/2023 02:46:26 -81.18,-100.48 117.53 1.73 60
22 06/28/2023 03:38:10 81.18, 67.05 62.41 06/28/2023 03:37:11 81.18, 67.05 62.44 0.51 59
23 06/28/2023 04:28:55 -81.18,-125.62 117.60 06/28/2023 04:27:57 -81.18,-125.67 117.56 1.04 58
24 06/28/2023 05:19:40 81.18, 41.62 62.42 06/28/2023 05:18:43 81.18, 41.47 62.47 2.56 57
25 06/28/2023 06:10:26 -81.19,-151.43 117.53 06/28/2023 06:09:29 -81.18,-151.25 117.52 3.07 57
26 06/28/2023 07:01:09 81.18, 16.19 62.43 06/28/2023 07:00:13 81.18, 16.28 62.45 1.45 56
27 06/28/2023 07:51:54 -81.18,-176.47 117.58 06/28/2023 07:50:59 -81.18,-176.45 117.55 0.49 55
28 06/28/2023 08:42:39 81.18, -9.23 62.44 06/28/2023 08:41:45 81.18, -9.30 62.48 1.20 54
29 06/28/2023 09:33:24 -81.18, 158.10 117.56 06/28/2023 09:32:31 -81.18, 157.97 117.52 2.22 53
30 06/28/2023 10:24:09 81.19, -34.66 62.45 06/28/2023 10:23:16 81.18, -34.50 62.46 2.78 53
31 06/28/2023 11:14:54 -81.18, 132.68 117.55 06/28/2023 11:14:02 -81.18, 132.78 117.54 1.73 52
32 06/28/2023 12:05:39 81.19, -60.08 62.47 06/28/2023 12:04:48 81.18, -60.08 62.49 0.37 51
33 06/28/2023 12:56:24 -81.19, 107.25 117.54 06/28/2023 12:55:34 -81.18, 107.20 117.51 0.95 50
34 06/28/2023 13:47:08 81.18, -85.13 62.42 06/28/2023 13:46:19 81.18, -85.27 62.47 2.50 49
35 06/28/2023 14:37:54 -81.19, 81.83 117.53 06/28/2023 14:37:05 -81.18, 82.01 117.53 3.06 49
36 06/28/2023 15:28:39 81.19,-110.94 62.49 06/28/2023 15:27:51 81.18,-110.85 62.50 1.62 48
37 06/28/2023 16:19:24 -81.19, 56.40 117.52 06/28/2023 16:18:37 -81.18, 56.42 117.50 0.70 47
38 06/28/2023 17:10:08 81.18,-135.98 62.44 06/28/2023 17:09:22 81.18,-136.04 62.48 1.12 46
39 06/28/2023 18:00:53 -81.18, 31.36 117.56 06/28/2023 18:00:08 -81.18, 31.23 117.52 2.20 45
40 06/28/2023 18:51:38 81.18,-161.41 62.46 06/28/2023 18:50:53 81.18,-161.24 62.46 2.93 45
41 06/28/2023 19:42:23 -81.18, 5.93 117.55 06/28/2023 19:41:39 -81.18, 6.04 117.54 1.83 44
42 06/28/2023 20:33:08 81.18, 173.16 62.47 06/28/2023 20:32:25 81.18, 173.18 62.49 0.29 43
43 06/28/2023 21:23:53 -81.18, -19.49 117.54 06/28/2023 21:23:11 -81.18, -19.54 117.51 0.86 42
44 06/28/2023 22:14:38 81.18, 147.74 62.48 06/28/2023 22:13:57 81.18, 147.60 62.52 2.36 41
45 06/28/2023 23:05:23 -81.18, -44.92 117.53 06/28/2023 23:04:42 -81.18, -44.74 117.53 3.10 41
46 06/28/2023 23:56:08 81.19, 122.31 62.49 06/28/2023 23:55:28 81.18, 122.41 62.50 1.65 40
47 06/29/2023 00:46:53 -81.19, -70.35 117.52 06/29/2023 00:46:14 -81.18, -70.32 117.50 0.48 39
48 06/29/2023 01:37:38 81.19, 96.88 62.50 06/29/2023 01:37:00 81.18, 96.82 62.53 1.11 38
49 06/29/2023 02:28:23 -81.19, -95.77 117.50 06/29/2023 02:27:46 -81.18, -95.90 117.47 2.22 37
50 06/29/2023 03:19:08 81.19, 71.46 62.51 06/29/2023 03:18:31 81.18, 71.63 62.51 3.02 37
51 06/29/2023 04:09:53 -81.19,-121.20 117.49 06/29/2023 04:09:17 -81.18,-121.10 117.49 1.82 36
52 06/29/2023 05:00:37 81.18, 46.41 62.47 06/29/2023 05:00:02 81.18, 46.44 62.49 0.62 35
53 06/29/2023 05:51:22 -81.18,-146.24 117.54 06/29/2023 05:50:48 -81.18,-146.29 117.51 0.96 34
54 06/29/2023 06:42:07 81.18, 20.99 62.48 06/29/2023 06:41:34 81.18, 20.86 62.52 2.23 33
55 06/29/2023 07:32:53 -81.19,-172.05 117.47 06/29/2023 07:32:20 -81.18,-171.87 117.48 3.16 33
56 06/29/2023 08:23:37 81.18, -4.44 62.49 06/29/2023 08:23:05 81.18, -4.34 62.50 1.77 32
57 06/29/2023 09:14:22 -81.18, 162.90 117.51 06/29/2023 09:13:51 -81.18, 162.93 117.50 0.56 31
58 06/29/2023 10:05:07 81.18, -29.87 62.51 06/29/2023 10:04:37 81.18, -29.92 62.53 0.88 30
59 06/29/2023 10:55:52 -81.18, 137.48 117.50 06/29/2023 10:55:23 -81.18, 137.35 117.47 2.13 29
60 06/29/2023 11:46:37 81.19, -55.29 62.52 06/29/2023 11:46:08 81.18, -55.11 62.51 3.11 29
61 06/29/2023 12:37:22 -81.18, 112.05 117.49 06/29/2023 12:36:54 -81.18, 112.16 117.49 1.82 28
62 06/29/2023 13:28:07 81.19, -80.72 62.53 06/29/2023 13:27:40 81.18, -80.69 62.54 0.61 27
63 06/29/2023 14:18:52 -81.19, 86.63 117.48 06/29/2023 14:18:26 -81.18, 86.58 117.46 0.88 26
64 06/29/2023 15:09:36 81.18,-105.77 62.48 06/29/2023 15:09:11 81.18,-105.89 62.52 2.17 25
65 06/29/2023 16:00:22 -81.19, 61.20 117.47 06/29/2023 15:59:57 -81.18, 61.38 117.48 3.14 25
66 06/29/2023 16:51:07 81.19,-131.58 62.55 06/29/2023 16:50:43 81.18,-131.47 62.55 1.94 24
67 06/29/2023 17:41:52 -81.19, 35.77 117.45 06/29/2023 17:41:29 -81.18, 35.80 117.45 0.76 23
68 06/29/2023 18:32:36 81.18,-156.62 62.51 06/29/2023 18:32:14 81.18,-156.66 62.53 0.80 22
69 06/29/2023 19:23:21 -81.18, 10.73 117.50 06/29/2023 19:23:00 -81.18, 10.61 117.47 2.12 21
70 06/29/2023 20:14:06 81.18, 177.95 62.52 06/29/2023 20:13:45 81.18, 178.14 62.51 3.25 21
71 06/29/2023 21:04:51 -81.18, -14.70 117.49 06/29/2023 21:04:31 -81.18, -14.59 117.49 1.90 20
72 06/29/2023 21:55:36 81.18, 152.52 62.53 06/29/2023 21:55:17 81.18, 152.56 62.54 0.60 19
73 06/29/2023 22:46:21 -81.18, -40.12 117.47 06/29/2023 22:46:03 -81.18, -40.17 117.46 0.78 18
74 06/29/2023 23:37:06 81.19, 127.10 62.55 06/29/2023 23:36:49 81.18, 126.98 62.57 2.05 17
75 06/30/2023 00:27:51 -81.18, -65.55 117.46 06/30/2023 00:27:34 -81.18, -65.36 117.48 3.17 17
76 06/30/2023 01:18:36 81.19, 101.67 62.56 06/30/2023 01:18:20 81.18, 101.78 62.55 1.97 16
77 06/30/2023 02:09:21 -81.19, -90.98 117.45 06/30/2023 02:09:06 -81.18, -90.95 117.45 0.56 15
78 06/30/2023 03:00:06 81.19, 76.24 62.57 06/30/2023 02:59:52 81.18, 76.20 62.58 0.88 14
79 06/30/2023 03:50:51 -81.19,-116.40 117.44 06/30/2023 03:50:38 -81.18,-116.53 117.41 2.16 13
80 06/30/2023 04:41:35 81.18, 51.20 62.53 06/30/2023 04:41:23 81.18, 51.01 62.56 3.28 12
81 06/30/2023 05:32:21 -81.19,-141.83 117.43 06/30/2023 05:32:09 -81.18,-141.72 117.44 1.90 12
82 06/30/2023 06:23:05 81.18, 25.77 62.54 06/30/2023 06:22:54 81.18, 25.81 62.54 0.83 11
83 06/30/2023 07:13:50 -81.18,-166.88 117.47 06/30/2023 07:13:40 -81.18,-166.92 117.46 0.88 10
84 06/30/2023 08:04:35 81.18, 0.34 62.55 06/30/2023 08:04:26 81.18, 0.23 62.57 1.91 9
85 06/30/2023 08:55:21 -81.19, 167.32 117.40 06/30/2023 08:55:12 -81.18, 167.50 117.42 3.23 9
86 06/30/2023 09:46:05 81.18, -25.08 62.56 06/30/2023 09:45:57 81.18, -24.96 62.55 2.07 8
87 06/30/2023 10:36:49 -81.18, 142.27 117.44 06/30/2023 10:36:42 -81.18, 142.31 117.44 0.61 7
88 06/30/2023 11:27:34 81.19, -50.51 62.58 06/30/2023 11:27:28 81.18, -50.55 62.58 0.59 6
89 06/30/2023 12:18:19 -81.18, 116.84 117.43 06/30/2023 12:18:14 -81.18, 116.72 117.41 2.07 5
90 06/30/2023 13:09:04 81.19, -75.94 62.59 06/30/2023 13:09:00 81.18, -76.13 62.62 3.23 4
91 06/30/2023 13:59:49 -81.19, 91.42 117.42 06/30/2023 13:59:45 -81.18, 91.53 117.43 1.88 4
92 06/30/2023 14:50:34 81.19,-101.37 62.60 06/30/2023 14:50:31 81.18,-101.32 62.60 0.90 3
93 06/30/2023 15:41:19 -81.19, 65.99 117.41 06/30/2023 15:41:17 -81.18, 65.95 117.40 0.84 2
94 06/30/2023 16:32:03 81.18,-126.41 62.56 06/30/2023 16:32:02 81.18,-126.52 62.58 1.86 1
95 06/30/2023 17:22:49 -81.19, 40.56 117.39 06/30/2023 17:22:48 -81.18, 40.75 117.42 3.21 1
96 06/30/2023 18:13:33 81.18,-151.84 62.57 06/30/2023 18:13:33 81.18,-151.71 62.55 2.24 0
97 06/30/2023 19:04:19 -81.19, 15.14 117.38 06/30/2023 19:04:20 -81.18, 15.17 117.39 0.84 1
98 06/30/2023 19:55:03 81.18,-177.27 62.58 06/30/2023 19:55:05 81.18,-177.29 62.59 0.50 2
99 06/30/2023 20:45:48 -81.18, -9.91 117.43 06/30/2023 20:45:51 -81.18, -10.03 117.41 2.05 3
100 06/30/2023 21:36:33 81.18, 157.30 62.60 06/30/2023 21:36:37 81.18, 157.12 62.62 3.08 4
101 06/30/2023 22:27:18 -81.18, -35.34 117.41 06/30/2023 22:27:22 -81.18, -35.22 117.43 1.94 4
102 06/30/2023 23:18:03 81.18, 131.88 62.61 06/30/2023 23:18:08 81.18, 131.93 62.60 0.90 5
103 07/01/2023 00:08:48 -81.18, -60.76 117.40 07/01/2023 00:08:54 -81.18, -60.80 117.40 0.72 6
104 07/01/2023 00:59:33 81.19, 106.45 62.62 07/01/2023 00:59:40 81.18, 106.35 62.63 1.77 7
105 07/01/2023 01:50:18 -81.18, -86.19 117.39 07/01/2023 01:50:25 -81.18, -86.00 117.42 3.22 7
106 07/01/2023 02:41:03 81.19, 81.02 62.63 07/01/2023 02:41:11 81.18, 81.15 62.61 2.27 8
107 07/01/2023 03:31:48 -81.19,-111.62 117.37 07/01/2023 03:31:57 -81.18,-111.58 117.39 0.63 9
108 07/01/2023 04:22:32 81.18, 55.98 62.59 07/01/2023 04:22:42 81.18, 55.96 62.59 0.68 10
109 07/01/2023 05:13:17 -81.18,-136.66 117.42 07/01/2023 05:13:28 -81.18,-136.78 117.41 2.11 11
110 07/01/2023 06:04:02 81.18, 30.55 62.60 07/01/2023 06:04:14 81.18, 30.37 62.62 2.98 12
111 07/01/2023 06:54:48 -81.19,-162.47 117.35 07/01/2023 06:55:00 -81.18,-162.36 117.37 1.96 12
112 07/01/2023 07:45:32 81.18, 5.12 62.62 07/01/2023 07:45:45 81.18, 5.18 62.60 1.06 13
113 07/01/2023 08:36:17 -81.18, 172.48 117.39 07/01/2023 08:36:31 -81.18, 172.44 117.39 0.80 14
114 07/01/2023 09:27:02 81.18, -20.31 62.63 07/01/2023 09:27:17 81.18, -20.40 62.64 1.62 15
115 07/01/2023 10:17:47 -81.18, 147.06 117.38 07/01/2023 10:18:02 -81.18, 147.25 117.41 3.28 15
116 07/01/2023 11:08:32 81.18, -45.74 62.64 07/01/2023 11:08:48 81.18, -45.60 62.62 2.35 16
117 07/01/2023 11:59:17 -81.18, 121.63 117.37 07/01/2023 11:59:34 -81.18, 121.67 117.38 0.63 17
118 07/01/2023 12:50:02 81.19, -71.16 62.66 07/01/2023 12:50:20 81.18, -71.18 62.65 0.38 18
119 07/01/2023 13:40:47 -81.18, 96.20 117.35 07/01/2023 13:41:06 -81.18, 96.08 117.35 2.03 19
120 07/01/2023 14:31:31 81.18, -96.21 62.61 07/01/2023 14:31:51 81.18, -96.38 62.63 2.94 20
121 07/01/2023 15:22:17 -81.19, 70.77 117.34 07/01/2023 15:22:37 -81.18, 70.89 117.37 1.93 20
122 07/01/2023 16:13:02 81.19,-122.02 62.68 07/01/2023 16:13:23 81.18,-121.96 62.66 1.19 21
123 07/01/2023 17:03:47 -81.19, 45.35 117.33 07/01/2023 17:04:09 -81.18, 45.30 117.34 0.84 22
124 07/01/2023 17:54:31 81.18,-147.07 62.64 07/01/2023 17:54:54 81.18,-147.16 62.64 1.56 23
125 07/01/2023 18:45:17 -81.19, 19.92 117.31 07/01/2023 18:45:40 -81.18, 20.11 117.36 3.26 23
126 07/01/2023 19:36:01 81.18,-172.50 62.65 07/01/2023 19:36:25 81.18,-172.35 62.62 2.50 24
127 07/01/2023 20:26:46 -81.18, -5.13 117.36 07/01/2023 20:27:11 -81.18, -5.09 117.38 0.82 25
128 07/01/2023 21:17:31 81.18, 162.08 62.67 07/01/2023 21:17:57 81.18, 162.07 62.65 0.20 26
129 07/01/2023 22:08:16 -81.18, -30.55 117.34 07/01/2023 22:08:43 -81.18, -30.67 117.34 2.00 27
130 07/01/2023 22:59:01 81.18, 136.65 62.68 07/01/2023 22:59:29 81.18, 136.48 62.69 2.81 28
131 07/01/2023 23:49:46 -81.18, -55.98 117.33 07/01/2023 23:50:14 -81.18, -55.87 117.36 1.97 28
132 07/02/2023 00:40:31 81.19, 111.22 62.69 07/02/2023 00:41:00 81.18, 111.29 62.67 1.18 29
133 07/02/2023 01:31:16 -81.18, -81.41 117.32 07/02/2023 01:31:46 -81.18, -81.45 117.33 0.69 30
134 07/02/2023 02:22:01 81.19, 85.79 62.71 07/02/2023 02:22:32 81.18, 85.70 62.70 1.53 31
135 07/02/2023 03:12:46 -81.19,-106.84 117.30 07/02/2023 03:13:17 -81.18,-106.65 117.35 3.26 31
136 07/02/2023 04:03:31 81.19, 60.36 62.72 07/02/2023 04:04:03 81.18, 60.51 62.68 2.56 32
137 07/02/2023 04:54:16 -81.19,-132.26 117.29 07/02/2023 04:54:49 -81.18,-132.23 117.32 0.71 33
138 07/02/2023 05:45:00 81.18, 35.32 62.68 07/02/2023 05:45:34 81.18, 35.31 62.66 0.48 34
139 07/02/2023 06:35:45 -81.18,-157.31 117.33 07/02/2023 06:36:20 -81.18,-157.43 117.34 2.05 35
140 07/02/2023 07:26:30 81.18, 9.89 62.69 07/02/2023 07:27:06 81.18, 9.73 62.69 2.71 36
141 07/02/2023 08:17:16 -81.19, 176.88 117.26 07/02/2023 08:17:52 -81.18, 176.99 117.30 2.02 36
142 07/02/2023 09:08:00 81.18, -15.54 62.70 07/02/2023 09:08:37 81.18, -15.47 62.67 1.29 37
143 07/02/2023 09:58:45 -81.18, 151.83 117.31 07/02/2023 09:59:23 -81.18, 151.79 117.32 0.73 38
144 07/02/2023 10:49:30 81.18, -40.97 62.72 07/02/2023 10:50:09 81.18, -41.05 62.71 1.36 39
145 07/02/2023 11:40:15 -81.18, 126.41 117.29 07/02/2023 11:40:54 -81.18, 126.60 117.34 3.30 39
146 07/02/2023 12:31:00 81.19, -66.40 62.73 07/02/2023 12:31:40 81.18, -66.24 62.69 2.62 40
147 07/02/2023 13:21:44 -81.18, 100.98 117.28 07/02/2023 13:22:25 -81.18, 101.02 117.31 0.64 41
148 07/02/2023 14:12:29 81.19, -91.83 62.75 07/02/2023 14:13:11 81.18, -91.83 62.72 0.38 42
149 07/02/2023 15:03:14 -81.19, 75.55 117.27 07/02/2023 15:03:57 -81.18, 75.43 117.28 2.01 43
150 07/02/2023 15:53:58 81.18,-116.87 62.70 07/02/2023 15:54:42 81.18,-117.02 62.70 2.65 44
151 07/02/2023 16:44:44 -81.19, 50.12 117.25 07/02/2023 16:45:28 -81.18, 50.24 117.29 1.96 44
152 07/02/2023 17:35:29 81.19,-142.68 62.77 07/02/2023 17:36:14 81.18,-142.61 62.73 1.48 45
153 07/02/2023 18:26:14 -81.19, 24.69 117.24 07/02/2023 18:27:00 -81.18, 24.65 117.26 0.88 46
154 07/02/2023 19:16:58 81.18,-167.73 62.73 07/02/2023 19:17:45 81.18,-167.80 62.71 1.28 47
155 07/02/2023 20:07:44 -81.19, -0.73 117.23 07/02/2023 20:08:31 -81.18, -0.54 117.28 3.30 47
156 07/02/2023 20:58:28 81.18, 166.84 62.74 07/02/2023 20:59:16 81.18, 167.00 62.69 2.73 48
157 07/02/2023 21:49:13 -81.18, -25.78 117.27 07/02/2023 21:50:02 -81.18, -25.74 117.30 0.77 49
158 07/02/2023 22:39:58 81.18, 141.41 62.76 07/02/2023 22:40:48 81.18, 141.42 62.73 0.09 50
159 07/02/2023 23:30:43 -81.18, -51.21 117.25 07/02/2023 23:31:34 -81.18, -51.33 117.27 1.97 51
160 07/03/2023 00:21:28 81.19, 115.98 62.77 07/03/2023 00:22:20 81.18, 115.83 62.76 2.57 52
161 07/03/2023 01:12:13 -81.18, -76.64 117.24 07/03/2023 01:13:05 -81.18, -76.52 117.29 1.97 52
162 07/03/2023 02:02:58 81.19, 90.55 62.79 07/03/2023 02:03:51 81.18, 90.64 62.74 1.46 53
163 07/03/2023 02:53:43 -81.19,-102.07 117.23 07/03/2023 02:54:37 -81.18,-102.11 117.25 0.69 54
164 07/03/2023 03:44:27 81.18, 65.51 62.74 07/03/2023 03:45:22 81.18, 65.44 62.72 1.31 55
165 07/03/2023 04:35:13 -81.19,-127.49 117.21 07/03/2023 04:36:08 -81.18,-127.30 117.27 3.28 55
166 07/03/2023 05:25:58 81.19, 39.70 62.81 07/03/2023 05:26:54 81.18, 39.86 62.76 2.83 56
167 07/03/2023 06:16:43 -81.19,-152.92 117.20 07/03/2023 06:17:40 -81.18,-152.89 117.24 0.78 57
168 07/03/2023 07:07:27 81.18, 14.65 62.77 07/03/2023 07:08:25 81.18, 14.66 62.74 0.37 58
169 07/03/2023 07:58:12 -81.18,-177.97 117.24 07/03/2023 07:59:11 -81.18,-178.08 117.26 2.00 59
170 07/03/2023 08:48:57 81.18, -10.78 62.79 07/03/2023 08:49:57 81.18, -10.92 62.77 2.45 60
171 07/03/2023 09:39:42 -81.18, 156.60 117.23 07/03/2023 09:40:42 -81.18, 156.72 117.28 2.05 60
172 07/03/2023 10:30:27 81.18, -36.21 62.80 07/03/2023 10:31:28 81.18, -36.12 62.75 1.52 61
173 07/03/2023 11:21:12 -81.18, 131.17 117.21 07/03/2023 11:22:14 -81.18, 131.14 117.24 0.67 62
174 07/03/2023 12:11:57 81.19, -61.64 62.81 07/03/2023 12:13:00 81.18, -61.70 62.79 1.14 63
175 07/03/2023 13:02:42 -81.18, 105.75 117.20 07/03/2023 13:03:46 -81.18, 105.55 117.21 3.29 64
176 07/03/2023 13:53:27 81.19, -87.07 62.83 07/03/2023 13:54:31 81.18, -86.90 62.77 2.87 64
177 07/03/2023 14:44:12 -81.19, 80.32 117.18 07/03/2023 14:45:17 -81.18, 80.35 117.23 0.66 65
178 07/03/2023 15:34:57 81.19,-112.50 62.84 07/03/2023 15:36:03 81.18,-112.49 62.80 0.58 66
179 07/03/2023 16:25:42 -81.19, 54.89 117.17 07/03/2023 16:26:49 -81.18, 54.77 117.19 2.03 67
180 07/03/2023 17:16:26 81.18,-137.54 62.80 07/03/2023 17:17:34 81.18,-137.68 62.78 2.39 68
181 07/03/2023 18:07:12 -81.19, 29.46 117.16 07/03/2023 18:08:20 -81.18, 29.57 117.21 1.99 68
182 07/03/2023 18:57:56 81.18,-162.97 62.81 07/03/2023 18:59:05 81.18,-162.88 62.76 1.66 69
183 07/03/2023 19:48:41 -81.18, 4.41 117.20 07/03/2023 19:49:51 -81.18, 4.38 117.23 0.82 70
184 07/03/2023 20:39:26 81.18, 171.60 62.83 07/03/2023 20:40:37 81.18, 171.54 62.80 1.02 71
185 07/03/2023 21:30:11 -81.18, -21.02 117.18 07/03/2023 21:31:23 -81.18, -21.21 117.20 3.28 72
186 07/03/2023 22:20:56 81.18, 146.17 62.84 07/03/2023 22:22:08 81.18, 146.34 62.78 2.96 72
187 07/03/2023 23:11:41 -81.18, -46.45 117.17 07/03/2023 23:12:54 -81.18, -46.41 117.22 0.71 73
188 07/04/2023 00:02:26 81.19, 120.74 62.86 07/04/2023 00:03:40 81.18, 120.76 62.81 0.37 74
189 07/04/2023 00:53:11 -81.18, -71.87 117.16 07/04/2023 00:54:26 -81.18, -71.99 117.18 1.97 75



Historial Predications of SNOs between NOAA-21 and FY3D
